Location: Feigenhofen
(48.4939°N, 10.7793°E)
Time: 05:10:41
(UTC+00:00)

USA 306 - Pass Details

Date: 26 May 2022
Orbit: 545 x 556 km, 54.0° (Epoch: 20 June)

Event Time Altitude Azimuth Distance (km) Brightness Sun altitude
Exits shadow 00:06:55 45° 154° (SSE) 757 3.1 -19.4°
Maximum altitude 00:07:11 46° 142° (SE) 749 3.2 -19.4°
Drops below altitude 10° 00:11:12 10° 69° (ENE) 1,846 6.0 -19.2°
Sets 00:13:30 0° 63° (ENE) 2,747 7.0 -19.2°
